QPF
0.01 0.01 0.01 0.01 0.00 0.00 0.00 0.00 0.00 0.01 0.02 0.02 0.02 0.01 0.02 0.04 0.03 0.02 0.02 0.05 0.05 0.05 0.05 0.05 0.05 0.04 0.04 0.03 0.03 0.02 0.01 0.02 0.02 0.02 0.02 0.02 0.02 0.01 0.01 0.01 0.01 0.00 0.00
0.02 0.01 0.01 0.01 0.01 0.01 0.01 0.00 0.01 0.01 0.02 0.02 0.01 0.02 0.02 0.03 0.03 0.03 0.02 0.05 0.07 0.06 0.07 0.08 0.08 0.06 0.05 0.03 0.03 0.03 0.03 0.03 0.02 0.02 0.02 0.02 0.02 0.02 0.01 0.01 0.01 0.00 0.00
0.02 0.02 0.01 0.01 0.01 0.01 0.01 0.01 0.02 0.01 0.01 0.02 0.01 0.01 0.01 0.02 0.02 0.02 0.02 0.02 0.04 0.06 0.08 0.08 0.08 0.08 0.07 0.05 0.04 0.05 0.05 0.04 0.04 0.02 0.02 0.02 0.02 0.02 0.01 0.01 0.01 0.00 0.00
0.03 0.02 0.01 0.01 0.00 0.01 0.01 0.02 0.02 0.02 0.02 0.02 0.01 0.02 0.02 0.02 0.01 0.01 0.01 0.01 0.02 0.04 0.07 0.08 0.08 0.08 0.09 0.10 0.09 0.08 0.07 0.06 0.05 0.04 0.03 0.03 0.02 0.02 0.01 0.01 0.01 0.01 0.00
0.03 0.02 0.01 0.00 0.01 0.01 0.01 0.01 0.01 0.02 0.01 0.02 0.02 0.02 0.02 0.02 0.02 0.02 0.02 0.01 0.01 0.02 0.03 0.06 0.08 0.07 0.07 0.10 0.13 0.11 0.10 0.08 0.05 0.04 0.04 0.03 0.04 0.03 0.02 0.01 0.01 0.01 0.01
0.02 0.01 0.01 0.01 0.01 0.02 0.03 0.02 0.02 0.02 0.02 0.02 0.02 0.02 0.02 0.02 0.01 0.02 0.02 0.02 0.01 0.01 0.01 0.02 0.04 0.05 0.07 0.08 0.10 0.11 0.10 0.08 0.06 0.05 0.04 0.04 0.03 0.04 0.03 0.02 0.02 0.01 0.01
0.02 0.02 0.02 0.02 0.02 0.02 0.02 0.03 0.02 0.02 0.02 0.02 0.03 0.04 0.03 0.01 0.00 0.00 0.01 0.01 0.02 0.02 0.01 0.01 0.01 0.02 0.03 0.05 0.07 0.08 0.09 0.10 0.09 0.07 0.05 0.04 0.04 0.05 0.04 0.04 0.03 0.02 0.02
0.04 0.03 0.03 0.04 0.03 0.03 0.03 0.03 0.02 0.01 0.02 0.02 0.03 0.02 0.01 0.01 0.01 0.00 0.00 0.00 0.01 0.01 0.01 0.01 0.01 0.01 0.01 0.01 0.02 0.05 0.07 0.08 0.10 0.09 0.07 0.06 0.05 0.05 0.05 0.04 0.04 0.04 0.04
0.05 0.03 0.02 0.03 0.03 0.02 0.02 0.01 0.01 0.01 0.02 0.02 0.02 0.01 0.00 0.00 0.00 0.01 0.01 0.01 0.00 0.00 0.00 0.00 0.00 0.00 0.00 0.00 0.00 0.01 0.03 0.04 0.05 0.08 0.08 0.07 0.05 0.05 0.04 0.04 0.04 0.04 0.04
0.04 0.04 0.02 0.02 0.02 0.02 0.01 0.01 0.01 0.01 0.01 0.01 0.01 0.00 0.00 0.00 0.00 0.00 0.00 0.00 0.00 0.00 0.00 0.00 0.00 0.00 0.00 0.01 0.01 0.00 0.00 0.01 0.02 0.04 0.06 0.06 0.05 0.04 0.04 0.04 0.04 0.04 0.04
0.03 0.03 0.02 0.02 0.02 0.02 0.01 0.01 0.00 0.01 0.01 0.01 0.00 0.00 0.00 0.00 0.00 0.00 0.00 0.00 0.00 0.00 0.00 0.00 0.00 0.00 0.00 0.00 0.01 0.01 0.00 0.00 0.01 0.01 0.02 0.03 0.03 0.02 0.02 0.03 0.04 0.05 0.06
0.03 0.02 0.03 0.03 0.02 0.02 0.01 0.01 0.01 0.01 0.01 0.01 0.01 0.00 0.00 0.00 0.00 0.00 0.00 0.00 0.00 0.00 0.00 0.00 0.00 0.00 0.00 0.00 0.00 0.00 0.00 0.00 0.00 0.00 0.00 0.01 0.01 0.02 0.02 0.02 0.03 0.05 0.06
0.03 0.02 0.02 0.02 0.02 0.01 0.01 0.01 0.01 0.01 0.01 0.01 0.01 0.00 0.00 0.00 0.00 0.00 0.00 0.00 0.00 0.00 0.00 0.00 0.00 0.00 0.00 0.00 0.00 0.00 0.00 0.00 0.00 0.00 0.00 0.00 0.01 0.01 0.01 0.01 0.02 0.03 0.04
0.02 0.02 0.02 0.02 0.02 0.02 0.02 0.02 0.01 0.01 0.01 0.01 0.01 0.01 0.00 0.00 0.00 0.00 0.00 0.00 0.00 0.00 0.00 0.00 0.00 0.00 0.00 0.00 0.00 0.00 0.00 0.00 0.00 0.00 0.00 0.00 0.00 0.00 0.00 0.00 0.00 0.01 0.01
0.04 0.03 0.03 0.02 0.03 0.03 0.03 0.02 0.01 0.01 0.01 0.01 0.01 0.01 0.00 0.00 0.00 0.00 0.00 0.00 0.00 0.00 0.00 0.00 0.00 0.00 0.00 0.01 0.01 0.00 0.00 0.00 0.00 0.00 0.00 0.00 0.00 0.00 0.00 0.00 0.00 0.00 0.00
0.04 0.03 0.04 0.04 0.04 0.04 0.03 0.03 0.03 0.02 0.02 0.01 0.01 0.01 0.01 0.00 0.00 0.01 0.00 0.00 0.00 0.00 0.00 0.00 0.00 0.00 0.00 0.00 0.00 0.00 0.01 0.01 0.01 0.00 0.00 0.00 0.00 0.00 0.00 0.00 0.00 0.00 0.00
0.07 0.07 0.06 0.07 0.05 0.04 0.03 0.04 0.03 0.03 0.02 0.02 0.01 0.01 0.01 0.01 0.01 0.01 0.01 0.00 0.00 0.00 0.00 0.00 0.00 0.00 0.00 0.00 0.00 0.00 0.00 0.00 0.00 0.01 0.01 0.01 0.00 0.00 0.00 0.00 0.00 0.00 0.00
0.11 0.12 0.09 0.08 0.06 0.03 0.03 0.04 0.03 0.03 0.03 0.03 0.02 0.02 0.02 0.01 0.01 0.01 0.01 0.01 0.00 0.00 0.00 0.00 0.00 0.00 0.00 0.00 0.00 0.00 0.00 0.00 0.01 0.01 0.01 0.00 0.00 0.00 0.01 0.01 0.00 0.00 0.00
0.13 0.15 0.15 0.12 0.07 0.04 0.03 0.03 0.03 0.03 0.03 0.03 0.02 0.02 0.02 0.02 0.01 0.01 0.00 0.00 0.00 0.00 0.00 0.00 0.00 0.00 0.00 0.00 0.00 0.00 0.00 0.00 0.00 0.00 0.01 0.01 0.01 0.01 0.01 0.01 0.01 0.01 0.01
0.13 0.16 0.16 0.14 0.11 0.08 0.06 0.04 0.04 0.03 0.03 0.02 0.02 0.02 0.02 0.02 0.02 0.02 0.02 0.01 0.01 0.01 0.01 0.00 0.00 0.00 0.00 0.00 0.00 0.00 0.00 0.00 0.01 0.00 0.01 0.01 0.00 0.00 0.00 0.00 0.01 0.01 0.01
0.20 0.20 0.20 0.18 0.15 0.12 0.08 0.06 0.05 0.05 0.05 0.04 0.03 0.02 0.02 0.01 0.02 0.02 0.02 0.02 0.02 0.02 0.01 0.01 0.01 0.01 0.01 0.01 0.01 0.00 0.00 0.00 0.00 0.00 0.00 0.00 0.00 0.00 0.00 0.01 0.01 0.01 0.01
0.26 0.25 0.22 0.19 0.16 0.12 0.10 0.09 0.08 0.06 0.05 0.05 0.04 0.03 0.02 0.02 0.02 0.02 0.02 0.03 0.03 0.03 0.02 0.02 0.01 0.01 0.01 0.01 0.01 0.01 0.01 0.00 0.00 0.00 0.01 0.01 0.01 0.01 0.01 0.01 0.01 0.01 0.01
0.28 0.28 0.26 0.20 0.15 0.12 0.10 0.10 0.09 0.07 0.06 0.05 0.05 0.04 0.03 0.03 0.03 0.03 0.03 0.03 0.03 0.03 0.02 0.02 0.02 0.02 0.02 0.02 0.02 0.01 0.01 0.01 0.01 0.01 0.01 0.01 0.01 0.01 0.01 0.01 0.01 0.01 0.01
0.26 0.27 0.26 0.22 0.17 0.14 0.10 0.09 0.10 0.08 0.07 0.06 0.05 0.05 0.05 0.05 0.05 0.04 0.03 0.02 0.02 0.03 0.03 0.03 0.03 0.03 0.03 0.02 0.02 0.01 0.02 0.02 0.02 0.01 0.01 0.01 0.01 0.01 0.01 0.01 0.01 0.01 0.01
0.20 0.22 0.23 0.22 0.20 0.19 0.15 0.11 0.10 0.09 0.08 0.08 0.08 0.08 0.08 0.07 0.08 0.06 0.04 0.04 0.04 0.04 0.04 0.04 0.03 0.03 0.02 0.02 0.01 0.01 0.01 0.01 0.01 0.01 0.01 0.01 0.01 0.01 0.01 0.01 0.00 0.01 0.01
0.14 0.15 0.17 0.17 0.16 0.14 0.13 0.11 0.10 0.09 0.09 0.08 0.07 0.07 0.08 0.07 0.08 0.07 0.06 0.04 0.03 0.02 0.02 0.02 0.02 0.02 0.02 0.02 0.02 0.02 0.02 0.02 0.02 0.02 0.01 0.01 0.01 0.01 0.01 0.01 0.01 0.01 0.02
MSLP
1016.97 1017.13 1017.21 1017.25 1017.27 1017.31 1017.40 1017.53 1017.70 1017.88 1018.06 1018.22 1018.35 1018.46 1018.56 1018.68 1018.83 1019.01 1019.25 1019.52 1019.81 1020.11 1020.40 1020.67 1020.92 1021.14 1021.33 1021.50 1021.66 1021.80 1021.94 1022.07 1022.21 1022.35 1022.51 1022.68 1022.86 1023.05 1023.24 1023.41 1023.55 1023.66 1023.75
1016.96 1017.14 1017.24 1017.29 1017.34 1017.39 1017.49 1017.62 1017.79 1017.99 1018.19 1018.38 1018.55 1018.70 1018.83 1018.96 1019.10 1019.26 1019.44 1019.66 1019.90 1020.16 1020.43 1020.69 1020.95 1021.18 1021.39 1021.57 1021.72 1021.85 1021.96 1022.06 1022.18 1022.31 1022.46 1022.63 1022.83 1023.03 1023.23 1023.42 1023.57 1023.69 1023.77
1016.89 1017.08 1017.22 1017.33 1017.41 1017.51 1017.62 1017.78 1017.96 1018.17 1018.40 1018.63 1018.84 1019.02 1019.18 1019.32 1019.45 1019.57 1019.70 1019.85 1020.02 1020.21 1020.43 1020.67 1020.91 1021.15 1021.36 1021.55 1021.70 1021.82 1021.92 1022.01 1022.10 1022.22 1022.36 1022.53 1022.73 1022.94 1023.16 1023.35 1023.52 1023.65 1023.75
1016.76 1016.99 1017.18 1017.34 1017.50 1017.65 1017.81 1017.99 1018.19 1018.42 1018.67 1018.92 1019.16 1019.37 1019.56 1019.71 1019.82 1019.91 1019.98 1020.05 1020.14 1020.26 1020.42 1020.60 1020.82 1021.04 1021.26 1021.45 1021.61 1021.73 1021.83 1021.91 1022.00 1022.09 1022.22 1022.39 1022.58 1022.79 1023.01 1023.21 1023.39 1023.53 1023.65
1016.60 1016.86 1017.11 1017.34 1017.57 1017.78 1018.00 1018.21 1018.44 1018.68 1018.93 1019.20 1019.45 1019.69 1019.90 1020.05 1020.16 1020.21 1020.24 1020.24 1020.25 1020.30 1020.38 1020.51 1020.68 1020.89 1021.10 1021.29 1021.46 1021.60 1021.70 1021.79 1021.86 1021.95 1022.06 1022.21 1022.39 1022.59 1022.79 1022.99 1023.18 1023.33 1023.46
1016.42 1016.70 1017.00 1017.30 1017.60 1017.88 1018.15 1018.40 1018.64 1018.89 1019.14 1019.41 1019.68 1019.93 1020.15 1020.32 1020.43 1020.47 1020.45 1020.40 1020.35 1020.32 1020.33 1020.40 1020.53 1020.71 1020.90 1021.10 1021.28 1021.43 1021.54 1021.63 1021.70 1021.78 1021.88 1022.00 1022.16 1022.33 1022.52 1022.71 1022.89 1023.05 1023.19
1016.22 1016.52 1016.85 1017.21 1017.58 1017.92 1018.22 1018.50 1018.76 1019.01 1019.26 1019.53 1019.80 1020.07 1020.31 1020.50 1020.61 1020.65 1020.62 1020.54 1020.44 1020.35 1020.30 1020.31 1020.39 1020.52 1020.70 1020.89 1021.07 1021.22 1021.35 1021.44 1021.52 1021.59 1021.67 1021.77 1021.90 1022.04 1022.21 1022.38 1022.54 1022.69 1022.84
1016.01 1016.31 1016.67 1017.08 1017.48 1017.87 1018.22 1018.52 1018.78 1019.03 1019.28 1019.55 1019.83 1020.11 1020.37 1020.59 1020.73 1020.79 1020.76 1020.67 1020.53 1020.40 1020.29 1020.25 1020.27 1020.36 1020.50 1020.66 1020.83 1020.98 1021.11 1021.21 1021.28 1021.35 1021.42 1021.51 1021.61 1021.73 1021.86 1022.00 1022.14 1022.29 1022.42
1015.81 1016.10 1016.48 1016.90 1017.34 1017.76 1018.13 1018.45 1018.73 1018.98 1019.23 1019.50 1019.79 1020.09 1020.38 1020.63 1020.81 1020.90 1020.89 1020.80 1020.65 1020.48 1020.33 1020.23 1020.19 1020.22 1020.30 1020.42 1020.56 1020.70 1020.82 1020.92 1021.00 1021.06 1021.13 1021.21 1021.29 1021.39 1021.50 1021.61 1021.73 1021.85 1021.97
1015.62 1015.91 1016.29 1016.72 1017.18 1017.61 1018.00 1018.34 1018.62 1018.88 1019.13 1019.41 1019.71 1020.04 1020.36 1020.65 1020.87 1020.99 1021.01 1020.94 1020.79 1020.60 1020.41 1020.26 1020.15 1020.11 1020.12 1020.18 1020.27 1020.37 1020.47 1020.56 1020.64 1020.72 1020.80 1020.88 1020.96 1021.05 1021.14 1021.23 1021.32 1021.42 1021.52
1015.45 1015.75 1016.13 1016.57 1017.03 1017.47 1017.87 1018.21 1018.50 1018.76 1019.03 1019.31 1019.63 1019.98 1020.33 1020.65 1020.91 1021.07 1021.13 1021.07 1020.94 1020.74 1020.52 1020.31 1020.14 1020.02 1019.96 1019.94 1019.97 1020.02 1020.09 1020.16 1020.25 1020.33 1020.43 1020.52 1020.62 1020.71 1020.80 1020.87 1020.95 1021.02 1021.09
1015.30 1015.62 1016.01 1016.46 1016.92 1017.36 1017.76 1018.10 1018.39 1018.66 1018.92 1019.22 1019.55 1019.91 1020.28 1020.62 1020.91 1021.11 1021.20 1021.17 1021.05 1020.85 1020.61 1020.37 1020.14 1019.95 1019.81 1019.71 1019.66 1019.65 1019.68 1019.73 1019.82 1019.92 1020.03 1020.16 1020.28 1020.39 1020.49 1020.56 1020.62 1020.67 1020.72
1015.15 1015.51 1015.93 1016.39 1016.85 1017.28 1017.67 1018.00 1018.29 1018.55 1018.82 1019.11 1019.45 1019.81 1020.18 1020.54 1020.85 1021.07 1021.18 1021.19 1021.09 1020.90 1020.67 1020.40 1020.13 1019.89 1019.67 1019.51 1019.38 1019.31 1019.29 1019.32 1019.39 1019.51 1019.65 1019.80 1019.96 1020.09 1020.20 1020.28 1020.33 1020.36 1020.38
1014.99 1015.42 1015.87 1016.34 1016.80 1017.23 1017.60 1017.92 1018.20 1018.45 1018.71 1018.99 1019.31 1019.66 1020.03 1020.38 1020.69 1020.92 1021.06 1021.09 1021.02 1020.87 1020.65 1020.39 1020.11 1019.83 1019.57 1019.34 1019.16 1019.03 1018.96 1018.95 1019.01 1019.13 1019.29 1019.47 1019.65 1019.81 1019.94 1020.02 1020.06 1020.07 1020.07
1014.81 1015.31 1015.81 1016.30 1016.76 1017.18 1017.53 1017.83 1018.09 1018.33 1018.58 1018.85 1019.14 1019.47 1019.81 1020.14 1020.43 1020.66 1020.81 1020.87 1020.84 1020.73 1020.56 1020.33 1020.07 1019.79 1019.51 1019.25 1019.03 1018.84 1018.73 1018.68 1018.71 1018.82 1018.97 1019.16 1019.36 1019.54 1019.67 1019.75 1019.79 1019.78 1019.75
1014.59 1015.17 1015.73 1016.24 1016.70 1017.11 1017.45 1017.74 1017.98 1018.21 1018.44 1018.68 1018.95 1019.24 1019.55 1019.84 1020.11 1020.32 1020.48 1020.57 1020.58 1020.53 1020.41 1020.25 1020.03 1019.79 1019.52 1019.25 1019.00 1018.78 1018.62 1018.53 1018.52 1018.59 1018.72 1018.90 1019.08 1019.26 1019.39 1019.46 1019.48 1019.45 1019.39
1014.36 1015.01 1015.61 1016.15 1016.62 1017.02 1017.35 1017.63 1017.87 1018.09 1018.31 1018.54 1018.78 1019.04 1019.30 1019.55 1019.78 1019.98 1020.13 1020.23 1020.29 1020.30 1020.26 1020.17 1020.03 1019.85 1019.62 1019.37 1019.11 1018.87 1018.66 1018.52 1018.45 1018.47 1018.55 1018.68 1018.83 1018.97 1019.07 1019.12 1019.12 1019.06 1018.98
1014.15 1014.85 1015.48 1016.03 1016.51 1016.92 1017.25 1017.54 1017.79 1018.01 1018.23 1018.46 1018.68 1018.91 1019.13 1019.34 1019.53 1019.70 1019.85 1019.97 1020.06 1020.13 1020.17 1020.16 1020.11 1020.00 1019.83 1019.61 1019.36 1019.10 1018.86 1018.66 1018.52 1018.46 1018.46 1018.52 1018.61 1018.69 1018.75 1018.76 1018.72 1018.64 1018.52
1013.99 1014.71 1015.36 1015.93 1016.42 1016.83 1017.18 1017.49 1017.76 1018.01 1018.25 1018.48 1018.71 1018.92 1019.12 1019.30 1019.45 1019.59 1019.72 1019.84 1019.97 1020.08 1020.19 1020.26 1020.29 1020.26 1020.15 1019.98 1019.75 1019.48 1019.20 1018.94 1018.73 1018.57 1018.48 1018.45 1018.45 1018.46 1018.46 1018.42 1018.33 1018.21 1018.07
1013.93 1014.66 1015.31 1015.88 1016.37 1016.80 1017.17 1017.51 1017.82 1018.11 1018.38 1018.65 1018.89 1019.11 1019.30 1019.45 1019.58 1019.70 1019.81 1019.93 1020.07 1020.22 1020.37 1020.51 1020.61 1020.64 1020.60 1020.47 1020.26 1019.98 1019.67 1019.35 1019.06 1018.81 1018.63 1018.49 1018.39 1018.32 1018.24 1018.14 1018.01 1017.85 1017.67
1014.01 1014.72 1015.36 1015.92 1016.42 1016.86 1017.26 1017.63 1017.98 1018.31 1018.64 1018.95 1019.23 1019.47 1019.66 1019.82 1019.93 1020.03 1020.13 1020.24 1020.38 1020.55 1020.74 1020.92 1021.07 1021.15 1021.16 1021.06 1020.87 1020.59 1020.25 1019.88 1019.52 1019.18 1018.90 1018.66 1018.47 1018.30 1018.15 1017.98 1017.80 1017.60 1017.39
1014.26 1014.94 1015.56 1016.11 1016.60 1017.05 1017.46 1017.86 1018.24 1018.63 1019.01 1019.37 1019.69 1019.97 1020.19 1020.36 1020.48 1020.58 1020.67 1020.77 1020.91 1021.08 1021.27 1021.47 1021.65 1021.76 1021.80 1021.73 1021.55 1021.26 1020.91 1020.50 1020.08 1019.67 1019.30 1018.97 1018.69 1018.45 1018.22 1017.99 1017.76 1017.51 1017.25
1014.69 1015.34 1015.94 1016.47 1016.94 1017.38 1017.80 1018.20 1018.62 1019.04 1019.46 1019.87 1020.24 1020.56 1020.83 1021.03 1021.17 1021.27 1021.36 1021.46 1021.58 1021.74 1021.93 1022.13 1022.31 1022.44 1022.48 1022.42 1022.25 1021.96 1021.59 1021.16 1020.69 1020.23 1019.80 1019.41 1019.06 1018.74 1018.45 1018.16 1017.87 1017.57 1017.26
1015.30 1015.94 1016.50 1017.01 1017.46 1017.87 1018.27 1018.67 1019.09 1019.52 1019.97 1020.41 1020.83 1021.20 1021.51 1021.74 1021.92 1022.04 1022.14 1022.24 1022.36 1022.50 1022.67 1022.85 1023.01 1023.13 1023.17 1023.10 1022.92 1022.64 1022.26 1021.81 1021.32 1020.83 1020.36 1019.91 1019.51 1019.14 1018.78 1018.44 1018.09 1017.73 1017.35
1016.08 1016.70 1017.25 1017.73 1018.15 1018.52 1018.89 1019.26 1019.65 1020.08 1020.53 1020.99 1021.43 1021.84 1022.19 1022.47 1022.68 1022.83 1022.95 1023.05 1023.16 1023.28 1023.42 1023.57 1023.70 1023.79 1023.80 1023.72 1023.53 1023.24 1022.86 1022.40 1021.90 1021.39 1020.89 1020.42 1019.97 1019.55 1019.15 1018.75 1018.34 1017.90 1017.45
1016.97 1017.60 1018.14 1018.60 1018.98 1019.31 1019.62 1019.94 1020.29 1020.69 1021.12 1021.58 1022.04 1022.47 1022.85 1023.16 1023.41 1023.59 1023.73 1023.83 1023.93 1024.03 1024.14 1024.24 1024.33 1024.38 1024.35 1024.24 1024.04 1023.73 1023.34 1022.88 1022.37 1021.85 1021.33 1020.83 1020.36 1019.90 1019.44 1018.98 1018.50 1017.99 1017.45
Thickness
5731 5730 5730 5729 5729 5728 5727 5726 5725 5724 5724 5723 5722 5721 5719 5718 5717 5716 5715 5714 5712 5712 5711 5710 5709 5708 5708 5707 5706 5705 5705 5704 5704 5703 5703 5702 5702 5701 5700 5700 5699 5698 5698
5730 5729 5728 5728 5727 5727 5726 5726 5724 5723 5723 5722 5721 5720 5719 5717 5716 5715 5714 5713 5712 5711 5710 5709 5709 5708 5707 5706 5705 5704 5704 5704 5703 5702 5701 5701 5700 5700 5699 5698 5698 5697 5696
5728 5728 5727 5727 5726 5726 5725 5725 5723 5722 5722 5721 5720 5719 5718 5717 5715 5714 5713 5712 5711 5710 5709 5709 5708 5707 5706 5706 5705 5704 5703 5703 5702 5701 5700 5700 5699 5698 5698 5697 5696 5696 5695
5727 5727 5726 5726 5726 5725 5725 5723 5722 5721 5720 5719 5718 5718 5717 5716 5714 5713 5712 5711 5711 5710 5709 5708 5707 5706 5706 5705 5705 5704 5703 5702 5701 5701 5700 5699 5698 5697 5697 5696 5695 5694 5693
5726 5726 5726 5725 5725 5724 5724 5723 5721 5720 5718 5717 5717 5716 5716 5715 5714 5713 5712 5712 5711 5710 5709 5708 5707 5707 5706 5705 5704 5704 5703 5702 5701 5700 5699 5698 5698 5697 5696 5695 5695 5694 5693
5725 5725 5725 5724 5724 5724 5722 5722 5720 5719 5717 5716 5716 5715 5714 5715 5714 5714 5713 5712 5711 5710 5709 5709 5708 5707 5706 5706 5705 5704 5703 5702 5701 5700 5699 5698 5697 5697 5696 5695 5694 5693 5692
5725 5725 5724 5724 5724 5723 5722 5721 5720 5717 5716 5715 5713 5711 5712 5714 5714 5714 5714 5713 5712 5711 5710 5709 5709 5708 5707 5706 5706 5705 5704 5703 5702 5701 5699 5699 5698 5697 5696 5696 5695 5693 5692
5724 5724 5724 5723 5723 5722 5721 5720 5719 5716 5715 5715 5712 5708 5705 5708 5712 5715 5714 5714 5714 5713 5712 5711 5710 5709 5708 5707 5706 5705 5705 5704 5702 5702 5700 5700 5699 5698 5697 5696 5695 5694 5693
5724 5724 5724 5724 5723 5722 5720 5720 5720 5718 5714 5714 5714 5711 5704 5702 5706 5711 5713 5714 5714 5714 5713 5712 5711 5710 5709 5708 5707 5706 5706 5704 5703 5702 5701 5700 5699 5699 5698 5697 5696 5695 5694
5723 5724 5724 5723 5722 5722 5721 5720 5720 5719 5717 5713 5713 5713 5712 5711 5706 5705 5710 5713 5714 5714 5714 5714 5713 5712 5711 5710 5709 5708 5707 5705 5704 5703 5702 5701 5700 5699 5698 5697 5696 5695 5694
5723 5723 5723 5723 5722 5722 5721 5720 5719 5719 5718 5715 5713 5712 5711 5710 5709 5706 5704 5708 5711 5714 5714 5714 5713 5713 5712 5711 5710 5709 5708 5706 5705 5704 5703 5702 5701 5700 5699 5697 5696 5695 5694
5721 5722 5722 5722 5722 5721 5721 5720 5719 5718 5717 5716 5715 5714 5712 5710 5708 5706 5704 5704 5706 5710 5713 5714 5714 5713 5713 5712 5711 5710 5709 5707 5706 5704 5703 5702 5701 5699 5698 5697 5696 5695 5694
5720 5721 5721 5721 5721 5720 5720 5719 5718 5717 5716 5715 5714 5713 5713 5712 5711 5708 5705 5703 5703 5706 5709 5713 5714 5713 5713 5712 5711 5710 5709 5707 5706 5704 5702 5701 5700 5698 5697 5696 5695 5694 5693
5722 5721 5721 5720 5720 5719 5719 5718 5716 5715 5714 5714 5713 5712 5711 5711 5710 5709 5706 5703 5699 5700 5703 5707 5711 5712 5712 5711 5711 5709 5708 5707 5705 5704 5702 5700 5698 5697 5695 5694 5693 5692 5691
5722 5721 5720 5719 5718 5717 5717 5715 5714 5713 5712 5711 5710 5710 5709 5708 5708 5707 5706 5704 5700 5695 5696 5701 5705 5709 5709 5709 5708 5707 5706 5705 5704 5702 5700 5698 5696 5695 5693 5692 5691 5689 5689
5722 5720 5719 5718 5716 5715 5714 5713 5711 5710 5709 5708 5707 5706 5705 5705 5704 5703 5703 5701 5700 5697 5694 5697 5700 5703 5704 5705 5705 5704 5703 5702 5700 5699 5697 5695 5694 5692 5691 5689 5688 5687 5686
5720 5719 5718 5716 5714 5713 5711 5709 5708 5707 5705 5704 5703 5703 5702 5701 5700 5699 5698 5697 5696 5694 5692 5694 5695 5697 5698 5698 5698 5698 5697 5696 5695 5694 5693 5691 5689 5688 5687 5685 5684 5683 5682
5719 5717 5715 5713 5712 5710 5708 5706 5704 5703 5701 5700 5699 5698 5697 5697 5695 5695 5693 5692 5691 5690 5689 5687 5688 5689 5690 5690 5691 5691 5690 5690 5689 5688 5687 5685 5684 5683 5681 5680 5679 5678 5676
5715 5713 5712 5709 5707 5706 5705 5703 5701 5699 5697 5695 5694 5693 5692 5691 5689 5688 5687 5686 5685 5685 5683 5681 5681 5681 5681 5682 5682 5682 5681 5680 5680 5680 5679 5677 5676 5675 5674 5673 5672 5671 5670
5711 5709 5707 5705 5703 5702 5700 5698 5696 5693 5692 5690 5688 5687 5686 5685 5683 5682 5681 5679 5679 5677 5675 5674 5672 5672 5671 5671 5671 5670 5670 5669 5669 5668 5668 5667 5666 5665 5664 5663 5662 5661 5660
5705 5703 5701 5699 5697 5696 5694 5692 5690 5687 5685 5683 5681 5680 5678 5677 5676 5675 5673 5672 5671 5669 5667 5665 5663 5661 5660 5658 5657 5657 5656 5656 5656 5655 5655 5654 5653 5653 5651 5651 5650 5650 5649
5699 5697 5695 5692 5690 5688 5686 5685 5683 5680 5678 5675 5672 5670 5669 5667 5666 5665 5664 5662 5661 5659 5657 5654 5652 5649 5647 5645 5644 5644 5642 5642 5642 5641 5640 5640 5639 5638 5637 5637 5636 5636 5636
5692 5689 5686 5684 5681 5678 5678 5676 5674 5671 5668 5665 5662 5660 5659 5656 5655 5653 5651 5650 5648 5646 5644 5642 5638 5635 5633 5632 5631 5630 5628 5627 5625 5625 5625 5626 5625 5623 5622 5621 5621 5620 5620
5683 5679 5676 5674 5671 5668 5667 5665 5663 5660 5656 5653 5651 5649 5647 5644 5644 5642 5640 5636 5633 5630 5629 5627 5623 5620 5618 5617 5616 5615 5613 5612 5610 5608 5608 5608 5609 5608 5607 5605 5604 5603 5603
5672 5669 5666 5664 5661 5657 5656 5655 5653 5650 5645 5641 5639 5636 5635 5633 5631 5630 5627 5623 5619 5615 5612 5610 5607 5604 5602 5601 5600 5599 5598 5596 5594 5592 5588 5587 5588 5589 5589 5588 5586 5585 5584
5662 5658 5654 5651 5650 5647 5645 5644 5643 5639 5634 5629 5625 5622 5621 5619 5617 5615 5612 5608 5603 5598 5596 5594 5591 5589 5586 5584 5582 5579 5577 5576 5574 5572 5569 5566 5566 5566 5569 5570 5566 5564 5564